Welcome to Bucharest LROP 060130Z 35006KT CAVOK 21/19 Q1011 NOSIG

Down The Danube 9, 11 April 2020

63

arrivals

44

departures

16z-21z

5 hours full ATC

 

Please note!

This website is intended for flight simulation only. Information presented here should not be used in real life flight situations.